Date,TemperatureHighF,TemperatureAvgF,TemperatureLowF,DewpointHighF,DewpointAvgF,DewpointLowF,HumidityHigh,HumidityAvg,HumidityLow,PressureMaxIn,PressureMinIn,WindSpeedMaxMPH,WindSpeedAvgMPH,GustSpeedMaxMPH,PrecipitationSumIn
2013-5-1,80.4,72.9,64.4,71.9,68.0,64.1,99,85,72,29.81,29.72,5,2,14,0.00
2013-5-2,70.5,69.0,67.3,70.3,68.7,66.8,99,99,93,29.77,29.65,4,1,11,1.81
2013-5-3,70.2,68.6,65.5,69.9,67.4,64.4,99,96,84,29.65,29.58,5,2,14,1.09
2013-5-4,69.8,68.8,65.1,69.5,68.5,64.0,99,99,83,29.58,29.44,8,2,15,0.73
2013-5-5,82.2,72.7,61.0,70.0,55.2,49.4,99,58,34,29.62,29.45,5,2,12,0.00
2013-5-6,81.3,71.2,56.5,60.4,49.5,44.9,90,47,30,29.73,29.59,5,2,11,0.00
2013-5-7,81.3,74.8,54.9,62.8,58.4,53.0,97,57,44,29.73,29.64,8,2,17,0.00
2013-5-8,90.1,80.1,56.7,67.4,59.1,55.1,99,51,32,29.83,29.73,5,1,11,0.40
2013-5-9,92.1,81.4,62.4,69.8,63.1,59.6,99,56,36,29.87,29.80,3,0,7,0.00
2013-5-10,95.9,77.4,61.2,71.8,65.1,59.5,99,71,30,29.86,29.72,3,0,6,0.00
2013-5-11,89.4,77.6,68.5,73.6,70.4,68.2,99,80,58,29.78,29.66,5,1,16,0.14
2013-5-12,89.8,84.1,67.3,71.6,67.0,63.5,99,57,48,29.73,29.65,6,2,12,0.01
2013-5-13,85.6,76.3,61.9,59.9,43.6,33.1,75,34,16,29.88,29.73,5,2,18,0.00
2013-5-14,90.1,75.4,50.7,54.3,44.7,26.7,89,39,11,29.98,29.88,4,0,7,0.00
2013-5-15,94.5,81.5,54.5,65.5,56.8,50.9,99,47,23,29.96,29.81,4,0,6,0.00
2013-5-16,92.8,81.0,62.8,69.6,66.6,61.3,97,63,38,29.86,29.75,4,0,8,0.00
2013-5-17,94.3,82.6,63.3,69.8,66.9,57.4,99,61,33,29.85,29.78,4,0,8,0.00
2013-5-18,94.3,83.3,67.1,75.3,71.2,65.6,99,69,50,29.87,29.75,3,0,7,0.07
2013-5-19,93.0,82.0,69.3,80.0,74.7,67.4,99,79,56,29.83,29.73,4,0,11,0.40
2013-5-20,87.8,81.0,69.6,78.5,74.7,69.3,99,82,64,29.83,29.74,3,0,6,0.08
2013-5-21,86.2,76.9,69.3,78.7,74.2,69.0,99,92,67,29.80,29.67,2,0,9,0.57
2013-5-22,84.9,79.3,66.4,81.1,74.8,66.1,99,87,70,29.74,29.65,2,0,5,0.56
2013-5-23,96.3,86.1,68.9,77.9,72.8,67.8,99,66,40,29.71,29.62,4,1,8,0.02
2013-5-24,93.6,87.2,71.1,72.7,61.0,52.1,99,44,28,29.82,29.67,6,2,13,0.00
2013-5-25,86.9,71.8,64.8,65.5,57.2,53.9,96,62,33,29.99,29.84,4,0,10,0.00
2013-5-26,89.6,81.4,58.3,67.8,53.9,47.5,99,41,25,29.97,29.89,3,1,8,0.02
2013-5-27,90.3,79.6,60.1,69.5,65.6,59.8,99,64,44,29.95,29.87,2,0,7,0.00
2013-5-28,89.8,82.0,64.0,71.8,69.9,63.8,99,68,53,29.92,29.86,3,1,9,0.00
2013-5-29,91.0,83.1,68.5,77.6,74.6,68.2,99,76,59,29.91,29.83,3,1,10,0.00
2013-5-30,91.0,85.0,72.3,76.7,74.3,72.0,99,71,57,29.91,29.83,3,1,8,0.02
2013-5-31,88.9,82.5,70.2,76.8,73.3,69.9,99,74,59,29.89,29.82,4,1,10,0.01